MST,Max TemperatureF,Mean TemperatureF,Min TemperatureF,Max Dew PointF,MeanDew PointF,Min DewpointF,Max Humidity, Mean Humidity, Min Humidity, Max Sea Level PressureIn, Mean Sea Level PressureIn, Min Sea Level PressureIn, Max VisibilityMiles, Mean VisibilityMiles, Min VisibilityMiles, Max Wind SpeedMPH, Mean Wind SpeedMPH, Max Gust SpeedMPH,PrecipitationIn, CloudCover, Events, WindDirDegrees
2013-2-1,33,24,15,18,12,9,80,62,35,30.35,30.28,30.24,10,10,10,12,7,,0.00,0,,138
2013-2-2,41,28,15,18,10,0,74,51,19,30.43,30.39,30.35,10,10,10,9,5,,0.00,0,,133
2013-2-3,37,30,24,28,16,5,100,64,30,30.35,30.20,30.11,10,8,0,13,5,17,0.00,6,Fog-Snow,145
2013-2-4,37,27,17,18,11,1,93,53,22,30.15,30.12,30.09,10,10,1,17,6,24,0.04,1,,142
2013-2-5,46,32,17,18,12,3,68,48,19,30.18,30.10,30.04,10,10,10,18,6,23,0.00,0,,134
2013-2-6,37,32,26,28,19,12,100,64,36,30.08,30.01,29.97,10,9,0,14,5,18,0.00,5,Snow,225
2013-2-7,37,26,14,25,9,-6,93,52,17,30.16,30.11,30.07,10,10,10,21,4,30,0.01,0,,146
2013-2-8,33,32,30,23,15,7,69,50,32,30.05,29.85,29.71,10,10,5,32,15,43,0.00,4,Snow,147
2013-2-9,30,22,15,21,17,10,100,82,44,29.70,29.60,29.51,10,4,0,16,7,26,0.00,8,Snow,250
2013-2-10,21,16,12,18,12,9,100,84,68,29.79,29.73,29.67,10,6,0,8,2,,0.01,8,Snow,155
2013-2-11,23,16,8,14,11,5,93,83,54,29.94,29.85,29.77,10,7,1,16,3,17,0.00,5,Snow,251
2013-2-12,23,12,0,9,3,-4,85,70,39,30.12,30.04,29.94,10,10,10,10,5,16,0.00,0,,145
2013-2-13,32,20,8,16,10,3,86,67,44,30.14,30.11,30.09,10,10,10,12,4,16,0.06,0,,148
2013-2-14,30,22,14,16,11,9,86,67,47,30.24,30.15,30.07,10,10,4,17,5,23,0.01,2,Snow,156
2013-2-15,28,19,10,10,6,3,79,60,37,30.41,30.31,30.23,10,10,10,12,5,25,0.01,1,,128
2013-2-16,37,26,14,7,4,0,67,43,22,30.41,30.32,30.19,10,10,10,10,5,12,0.00,0,,143
2013-2-17,41,31,21,23,1,-15,100,34,10,30.19,29.93,29.78,10,9,1,20,7,39,0.00,1,Snow,198
2013-2-18,30,19,8,23,1,-18,100,52,12,30.06,29.99,29.82,10,9,1,14,6,22,0.00,2,Snow,226
2013-2-19,35,26,17,7,-3,-15,35,27,16,30.02,29.87,29.71,10,10,10,21,8,29,0.00,1,,121
2013-2-20,32,24,17,23,15,5,100,70,32,29.70,29.58,29.52,10,7,0,15,5,26,0.01,7,Snow-Thunderstorm,180
2013-2-21,26,22,17,21,19,18,100,92,74,29.80,29.69,29.56,10,2,0,18,7,23,0.00,8,Snow,260
2013-2-22,21,14,8,18,13,3,100,88,73,29.98,29.86,29.79,10,3,0,16,4,20,0.00,7,Snow,251
2013-2-23,32,18,3,25,12,0,93,79,50,29.96,29.80,29.66,10,7,1,22,5,31,0.02,6,Snow,148
2013-2-24,19,10,1,12,6,0,93,77,49,29.92,29.74,29.66,10,7,0,16,5,21,0.01,5,Snow,235
2013-2-25,30,18,5,12,6,0,92,64,27,30.03,29.96,29.88,10,9,2,12,3,,0.02,2,Snow,184
2013-2-26,21,16,10,14,11,7,100,78,58,30.05,29.87,29.76,10,5,0,18,5,30,0.00,8,Snow,272
2013-2-27,26,14,1,9,2,-4,92,65,33,30.22,30.15,30.04,10,10,4,12,4,17,0.01,0,Snow,160
2013-2-28,30,18,5,10,2,-8,79,54,19,30.37,30.29,30.21,10,10,10,18,6,23,0.00,2,,173